Location: Edemissen
(51.7689°N, 9.8634°E)
Time: 08:16:54
(UTC+00:00)

Cosmos 1937 Rocket - Pass Details

Date: 15 June 2024
Orbit: 745 x 777 km, 74.0° (Epoch: 22 July)

Event Time Altitude Azimuth Distance (km) Brightness Sun altitude
Exits shadow 00:57:48 16° 189° (S) 1,944 5.0 -12.0°
Maximum altitude 01:02:01 65° 110° (ESE) 845 3.7 -11.7°
Drops below altitude 10° 01:07:13 10° 30° (NNE) 2,312 7.6 -11.4°
Sets 01:09:36 0° 27° (NNE) 3,237 9.0 -11.2°
